Location: Audinghen
(50.8518°N, 1.6129°E)
Time: 05:31:37
(UTC+00:00)

SL-16 R/B - Pass Details

Date: 07 August 2020
Orbit: 840 x 849 km, 71.0° (Epoch: 23 September)

Event Time Altitude Azimuth Distance (km) Brightness Sun altitude
Rises 00:13:35 0° 331° (NNW) 3,425 6.3 -22.7°
Reaches altitude 10° 00:16:31 10° 345° (NNW) 2,486 5.6 -22.7°
Maximum altitude 00:21:09 25° 40° (NE) 1,666 4.3 -22.6°
Drops below altitude 10° 00:25:46 10° 94° (E) 2,476 4.7 -22.6°
Sets 00:28:40 0° 108° (ESE) 3,408 5.3 -22.5°
